Regional Weather Roundup
Issued by NWS

Home | Current Version | Previous Version | Text Only | Print | Product List | Glossary On
Versions: 1 2 3 4 5 6 7 8 9 10 11 12 13 14 15 16 17 18 19 20 21 22 23 24 25 26 27 28 29 30 31 32 33 34 35 36 37 38 39 40 41 42 43 44 45 46 47 48 49 50
000
ASUS43 KLSX 080310
RWRMO

WEATHER SUMMARY FOR MISSOURI
NATIONAL WEATHER SERVICE SPRINGFIELD MO
900 PM CST SUN FEB 07 2016

NOTE: "FAIR" INDICATES FEW OR NO CLOUDS BELOW 12,000 FEET WITH NO
       SIGNIFICANT WEATHER AND/OR OBSTRUCTIONS TO VISIBILITY.
       CURRENT SKY AND/OR WEATHER CONDITIONS ARE NOT AVAILABLE FOR
       CHILLICOTHE AND FARMINGTON.

MOZ001>031-035>038-043-044-053-054-080400-
...NORTHERN AND WESTERN MISSOURI...

CITY           SKY/WX    TMP DP  RH WIND       PRES   REMARKS
KANSAS CTY INT CLOUDY    38  27  64 NW18G31   30.01F WCI  28
KANSAS C DTWN  CLOUDY    40  27  59 NW17G28   30.01F
LEE`S SUMMIT   CLOUDY    38  27  64 NW15G33   30.02F WCI  29
ST JOSEPH      CLOUDY    37  27  67 NW26G37   30.01F WCI  25
CHILLICOTHE      N/A     39  29  67 VRB7G26   29.95F
KIRKSVILLE     FLURRIES  34  30  85 W16G23    29.88F WCI  24

$$
MOZ066>068-077>081-088>096-101>105-080400-
...SOUTHWEST MISSOURI...

CITY           SKY/WX    TMP DP  RH WIND       PRES   REMARKS
SPRINGFIELD    CLEAR     41  17  38 W8        30.01S
JOPLIN         MOCLDY    43  17  35 W13       30.08S

$$
MOZ032>034-039>042-045>050-055>058-069>072-080400-
...CENTRAL MISSOURI...

CITY           SKY/WX    TMP DP  RH WIND       PRES   REMARKS
COLUMBIA       PTCLDY    41  23  48 NW10      29.91F
JEFFERSON CITY PTCLDY    43  21  41 W14       29.93F
ROLLA          PTCLDY    42  21  43 W14       29.91F
SEDALIA        CLOUDY    42  25  50 NW18G32   29.97S
WHITEMAN AFB   MOCLDY    39  27  60 NW23G31   29.97R WCI  29
WARRENSBURG    CLOUDY    37  28  70 W15G25    30.00S WCI  28
OSAGE BEACH    MOCLDY    43  18  36 W7G16     29.96S

$$
MOZ051-052-059>065-080400-
...EAST CENTRAL MISSOURI...

CITY           SKY/WX    TMP DP  RH WIND       PRES   REMARKS
ST LOUIS INTL  PTCLDY    39  30  70 W5        29.89F
SPIRIT OF STL  MOCLDY    37  30  75 CALM      29.90F
ST CHARLES     CLEAR     38  30  73 W6        29.88F

$$
MOZ072>076-082>087-097>100-106>115-080400-
...SOUTH CENTRAL AND SOUTHEAST MISSOURI...

CITY           SKY/WX    TMP DP  RH WIND       PRES   REMARKS
CAPE GIRARDEAU CLOUDY    48  31  51 NW10      29.92R
FARMINGTON     CLOUDY    43  29  57 W6        29.92F
POPLAR BLUFF   CLOUDY    49  28  44 NW7       29.93S
WEST PLAINS    CLEAR     41  25  53 W8        29.98F

$$



USA.gov is the U.S. government's official web portal to all federal, state and local government web resources and services.